Time,TemperatureF,DewpointF,PressureIn,WindDirection,WindDirectionDegrees,WindSpeedMPH,WindSpeedGustMPH,Humidity,HourlyPrecipIn,Conditions,Clouds,dailyrainin,SoftwareType,DateUTC
2013-10-07 00:24:00,64.3,62.0,29.87,SSE,162,0.0,3.0,93,0.05,,,0.05,weatherlink.com 1.10,2013-10-07 04:24:00,
2013-10-07 00:39:00,63.8,62.0,29.87,South,190,0.0,1.0,94,0.07,,,0.01,weatherlink.com 1.10,2013-10-07 04:39:00,
2013-10-07 00:54:00,63.5,62.0,29.85,South,189,0.0,1.0,95,0.12,,,0.07,weatherlink.com 1.10,2013-10-07 04:54:00,
2013-10-07 01:09:00,63.3,62.0,29.85,NW,311,0.0,2.0,95,0.15,,,0.12,weatherlink.com 1.10,2013-10-07 05:09:00,
2013-10-07 01:25:00,63.1,62.0,29.84,NW,311,0.0,1.0,96,0.22,,,0.21,weatherlink.com 1.10,2013-10-07 05:25:00,
2013-10-07 01:39:00,62.8,62.0,29.83,NNW,328,0.0,1.0,96,0.26,,,0.27,weatherlink.com 1.10,2013-10-07 05:39:00,
2013-10-07 01:54:00,62.7,62.0,29.83,NNW,329,0.0,1.0,96,0.27,,,0.34,weatherlink.com 1.10,2013-10-07 05:54:00,
2013-10-07 02:09:00,62.6,62.0,29.82,NNW,330,1.0,1.0,97,0.21,,,0.34,weatherlink.com 1.10,2013-10-07 06:09:00,
2013-10-07 02:25:00,62.6,62.0,29.82,NNW,330,0.0,1.0,97,0.12,,,0.34,weatherlink.com 1.10,2013-10-07 06:25:00,
2013-10-07 02:40:00,62.4,62.0,29.82,NNW,330,0.0,1.0,97,0.07,,,0.34,weatherlink.com 1.10,2013-10-07 06:40:00,
2013-10-07 02:54:00,62.2,61.0,29.81,NNW,330,0.0,0.0,97,0.00,,,0.34,weatherlink.com 1.10,2013-10-07 06:54:00,
2013-10-07 03:10:00,62.2,61.0,29.80,NNW,330,0.0,0.0,97,0.00,,,0.34,weatherlink.com 1.10,2013-10-07 07:10:00,
2013-10-07 03:25:00,62.1,61.0,29.79,NNW,330,0.0,0.0,97,0.00,,,0.34,weatherlink.com 1.10,2013-10-07 07:25:00,
2013-10-07 03:40:00,61.9,61.0,29.80,NNW,330,0.0,0.0,97,0.00,,,0.34,weatherlink.com 1.10,2013-10-07 07:40:00,
2013-10-07 03:56:00,61.9,61.0,29.80,NNW,330,0.0,0.0,97,0.01,,,0.35,weatherlink.com 1.10,2013-10-07 07:56:00,
2013-10-07 04:11:00,62.0,61.0,29.80,NNW,330,0.0,0.0,97,0.04,,,0.38,weatherlink.com 1.10,2013-10-07 08:11:00,
2013-10-07 04:26:00,61.9,61.0,29.80,NNW,330,0.0,0.0,97,0.10,,,0.44,weatherlink.com 1.10,2013-10-07 08:26:00,
2013-10-07 04:41:00,62.0,61.0,29.80,NNW,330,0.0,0.0,97,0.20,,,0.54,weatherlink.com 1.10,2013-10-07 08:41:00,
2013-10-07 04:55:00,61.8,61.0,29.81,NNW,330,0.0,1.0,97,0.28,,,0.63,weatherlink.com 1.10,2013-10-07 08:55:00,
2013-10-07 05:11:00,61.8,61.0,29.80,West,259,0.0,1.0,97,0.31,,,0.69,weatherlink.com 1.10,2013-10-07 09:11:00,
2013-10-07 05:26:00,61.9,61.0,29.82,WSW,257,0.0,1.0,97,0.29,,,0.73,weatherlink.com 1.10,2013-10-07 09:26:00,
2013-10-07 05:41:00,61.8,61.0,29.81,WSW,257,0.0,1.0,97,0.27,,,0.81,weatherlink.com 1.10,2013-10-07 09:41:00,
2013-10-07 05:57:00,59.5,58.0,29.83,NW,320,0.0,2.0,96,0.23,,,0.87,weatherlink.com 1.10,2013-10-07 09:57:00,
2013-10-07 07:26:00,53.9,53.0,29.86,SSW,212,1.0,2.0,96,0.09,,,0.99,weatherlink.com 1.10,2013-10-07 11:26:00,
2013-10-07 07:42:00,53.6,53.0,29.86,West,262,0.0,1.0,96,0.05,,,0.99,weatherlink.com 1.10,2013-10-07 11:42:00,
2013-10-07 07:57:00,53.6,53.0,29.87,WSW,240,0.0,3.0,97,0.01,,,0.99,weatherlink.com 1.10,2013-10-07 11:57:00,
2013-10-07 08:12:00,53.5,53.0,29.87,WSW,242,0.0,1.0,97,0.00,,,0.99,weatherlink.com 1.10,2013-10-07 12:12:00,
2013-10-07 08:27:00,53.0,52.0,29.87,WSW,253,0.0,1.0,97,0.00,,,0.99,weatherlink.com 1.10,2013-10-07 12:27:00,
2013-10-07 08:42:00,52.9,52.0,29.87,North,4,0.0,1.0,97,0.00,,,0.99,weatherlink.com 1.10,2013-10-07 12:42:00,
2013-10-07 08:57:00,52.8,52.0,29.88,WSW,243,1.0,3.0,97,0.00,,,0.99,weatherlink.com 1.10,2013-10-07 12:57:00,
2013-10-07 09:12:00,52.6,52.0,29.88,SSW,207,0.0,1.0,97,0.00,,,0.99,weatherlink.com 1.10,2013-10-07 13:12:00,
2013-10-07 09:27:00,52.6,52.0,29.89,NNW,338,0.0,1.0,97,0.00,,,0.99,weatherlink.com 1.10,2013-10-07 13:27:00,
2013-10-07 09:43:00,52.5,52.0,29.90,SSW,197,0.0,2.0,97,0.00,,,0.99,weatherlink.com 1.10,2013-10-07 13:43:00,
2013-10-07 09:57:00,52.6,52.0,29.91,ENE,60,0.0,2.0,97,0.00,,,0.99,weatherlink.com 1.10,2013-10-07 13:57:00,
2013-10-07 10:13:00,52.9,52.0,29.91,SW,235,0.0,1.0,97,0.00,,,0.99,weatherlink.com 1.10,2013-10-07 14:13:00,
2013-10-07 10:28:00,53.1,52.0,29.91,ENE,67,0.0,1.0,97,0.00,,,0.99,weatherlink.com 1.10,2013-10-07 14:28:00,
2013-10-07 10:43:00,53.6,53.0,29.91,NE,53,0.0,2.0,97,0.00,,,0.99,weatherlink.com 1.10,2013-10-07 14:43:00,
2013-10-07 10:58:00,53.9,53.0,29.92,SE,134,1.0,3.0,96,0.00,,,0.99,weatherlink.com 1.10,2013-10-07 14:58:00,
2013-10-07 11:13:00,54.2,53.0,29.92,East,86,0.0,3.0,96,0.00,,,0.99,weatherlink.com 1.10,2013-10-07 15:13:00,
2013-10-07 11:28:00,54.4,53.0,29.92,NE,36,2.0,4.0,96,0.00,,,0.99,weatherlink.com 1.10,2013-10-07 15:28:00,
2013-10-07 11:43:00,54.3,53.0,29.93,ENE,71,0.0,6.0,95,0.00,,,0.99,weatherlink.com 1.10,2013-10-07 15:43:00,
2013-10-07 11:58:00,54.3,53.0,29.93,NNW,345,2.0,3.0,94,0.00,,,0.99,weatherlink.com 1.10,2013-10-07 15:58:00,
2013-10-07 12:13:00,54.4,53.0,29.93,ENE,77,2.0,3.0,94,0.00,,,0.99,weatherlink.com 1.10,2013-10-07 16:13:00,
2013-10-07 12:28:00,54.9,53.0,29.94,ENE,58,1.0,4.0,92,0.00,,,0.99,weatherlink.com 1.10,2013-10-07 16:28:00,
2013-10-07 12:43:00,55.7,54.0,29.94,SSW,195,1.0,2.0,92,0.00,,,0.99,weatherlink.com 1.10,2013-10-07 16:43:00,
2013-10-07 12:58:00,56.3,54.0,29.94,ENE,57,0.0,4.0,90,0.00,,,0.99,weatherlink.com 1.10,2013-10-07 16:58:00,
2013-10-07 13:13:00,56.7,54.0,29.93,NE,34,0.0,2.0,89,0.00,,,0.99,weatherlink.com 1.10,2013-10-07 17:13:00,
2013-10-07 13:28:00,57.3,54.0,29.93,WNW,283,0.0,5.0,88,0.00,,,0.99,weatherlink.com 1.10,2013-10-07 17:28:00,
2013-10-07 13:43:00,58.0,54.0,29.93,NW,315,0.0,2.0,86,0.00,,,0.99,weatherlink.com 1.10,2013-10-07 17:43:00,
2013-10-07 13:58:00,58.0,54.0,29.92,ENE,63,0.0,4.0,85,0.00,,,0.99,weatherlink.com 1.10,2013-10-07 17:58:00,
2013-10-07 14:13:00,58.2,53.0,29.93,NNW,330,2.0,4.0,84,0.00,,,0.99,weatherlink.com 1.10,2013-10-07 18:13:00,
2013-10-07 14:28:00,58.3,54.0,29.93,NNW,328,2.0,4.0,84,0.00,,,0.99,weatherlink.com 1.10,2013-10-07 18:28:00,
2013-10-07 14:43:00,58.1,53.0,29.93,NNW,330,0.0,3.0,82,0.00,,,0.99,weatherlink.com 1.10,2013-10-07 18:43:00,
2013-10-07 14:58:00,58.2,53.0,29.93,North,11,0.0,6.0,82,0.00,,,0.99,weatherlink.com 1.10,2013-10-07 18:58:00,
2013-10-07 15:13:00,58.2,52.0,29.93,NE,54,1.0,3.0,81,0.00,,,0.99,weatherlink.com 1.10,2013-10-07 19:13:00,
2013-10-07 15:28:00,58.4,52.0,29.93,NNW,332,1.0,4.0,78,0.00,,,0.99,weatherlink.com 1.10,2013-10-07 19:28:00,
2013-10-07 15:43:00,58.6,52.0,29.94,NE,46,1.0,5.0,78,0.00,,,0.99,weatherlink.com 1.10,2013-10-07 19:43:00,
2013-10-07 15:58:00,58.4,52.0,29.94,NNW,328,2.0,4.0,78,0.00,,,0.99,weatherlink.com 1.10,2013-10-07 19:58:00,
2013-10-07 16:14:00,58.3,51.0,29.93,NNW,331,1.0,4.0,78,0.00,,,0.99,weatherlink.com 1.10,2013-10-07 20:14:00,
2013-10-07 16:28:00,58.7,52.0,29.94,NW,321,1.0,4.0,78,0.00,,,0.99,weatherlink.com 1.10,2013-10-07 20:28:00,
2013-10-07 16:43:00,58.7,52.0,29.94,NNW,332,1.0,3.0,78,0.00,,,0.99,weatherlink.com 1.10,2013-10-07 20:43:00,
2013-10-07 16:59:00,59.0,52.0,29.94,NW,320,0.0,4.0,78,0.00,,,0.99,weatherlink.com 1.10,2013-10-07 20:59:00,
2013-10-07 17:14:00,59.1,51.0,29.94,SSE,153,1.0,4.0,75,0.00,,,0.99,weatherlink.com 1.10,2013-10-07 21:14:00,
2013-10-07 17:29:00,59.3,52.0,29.94,NW,321,2.0,8.0,76,0.00,,,0.99,weatherlink.com 1.10,2013-10-07 21:29:00,
2013-10-07 17:44:00,58.9,51.0,29.95,NE,54,2.0,9.0,76,0.00,,,0.99,weatherlink.com 1.10,2013-10-07 21:44:00,
2013-10-07 17:59:00,58.4,52.0,29.95,NW,323,0.0,2.0,78,0.00,,,0.99,weatherlink.com 1.10,2013-10-07 21:59:00,
2013-10-07 18:14:00,57.5,52.0,29.96,NW,323,0.0,2.0,83,0.00,,,0.99,weatherlink.com 1.10,2013-10-07 22:14:00,
2013-10-07 18:29:00,56.0,53.0,29.97,SW,219,1.0,1.0,88,0.00,,,0.99,weatherlink.com 1.10,2013-10-07 22:29:00,
2013-10-07 19:14:00,53.8,51.0,29.98,South,187,1.0,1.0,89,0.00,,,0.99,weatherlink.com 1.10,2013-10-07 23:14:00,
2013-10-07 19:29:00,53.6,51.0,29.99,SSW,211,1.0,2.0,91,0.00,,,0.99,weatherlink.com 1.10,2013-10-07 23:29:00,
2013-10-07 19:45:00,53.5,51.0,30.00,SSW,205,0.0,2.0,90,0.00,,,0.99,weatherlink.com 1.10,2013-10-07 23:45:00,
2013-10-07 20:00:00,53.4,51.0,30.00,SSW,203,0.0,1.0,91,0.00,,,0.99,weatherlink.com 1.10,2013-10-08 00:00:00,
2013-10-07 20:14:00,53.3,51.0,30.01,South,188,1.0,1.0,91,0.00,,,0.99,weatherlink.com 1.10,2013-10-08 00:14:00,
2013-10-07 20:29:00,53.1,51.0,30.02,SSE,163,0.0,1.0,91,0.00,,,0.99,weatherlink.com 1.10,2013-10-08 00:29:00,
2013-10-07 20:44:00,52.9,51.0,30.03,SSW,195,1.0,2.0,92,0.00,,,0.99,weatherlink.com 1.10,2013-10-08 00:44:00,
2013-10-07 20:59:00,52.7,51.0,30.03,South,189,0.0,3.0,92,0.00,,,0.99,weatherlink.com 1.10,2013-10-08 00:59:00,
2013-10-07 21:14:00,52.6,50.0,30.04,South,191,1.0,1.0,92,0.00,,,0.99,weatherlink.com 1.10,2013-10-08 01:14:00,
2013-10-07 21:29:00,52.4,50.0,30.04,South,169,1.0,2.0,91,0.00,,,0.99,weatherlink.com 1.10,2013-10-08 01:29:00,
2013-10-07 21:44:00,52.2,50.0,30.05,SSW,193,0.0,1.0,92,0.00,,,0.99,weatherlink.com 1.10,2013-10-08 01:44:00,
2013-10-07 21:59:00,52.0,50.0,30.06,SSW,194,0.0,1.0,91,0.00,,,0.99,weatherlink.com 1.10,2013-10-08 01:59:00,
2013-10-07 22:14:00,51.8,49.0,30.06,SSW,197,0.0,1.0,91,0.00,,,0.99,weatherlink.com 1.10,2013-10-08 02:14:00,
2013-10-07 22:29:00,51.6,49.0,30.07,SSW,198,0.0,1.0,90,0.00,,,0.99,weatherlink.com 1.10,2013-10-08 02:29:00,
2013-10-07 22:44:00,51.4,49.0,30.07,SSW,200,1.0,2.0,90,0.00,,,0.99,weatherlink.com 1.10,2013-10-08 02:44:00,
2013-10-07 22:59:00,51.3,49.0,30.06,SSW,200,1.0,1.0,90,0.00,,,0.99,weatherlink.com 1.10,2013-10-08 02:59:00,
2013-10-07 23:14:00,51.5,49.0,30.07,SSW,201,1.0,1.0,90,0.00,,,0.99,weatherlink.com 1.10,2013-10-08 03:14:00,
2013-10-07 23:29:00,51.6,49.0,30.07,SSW,202,0.0,1.0,90,0.00,,,0.99,weatherlink.com 1.10,2013-10-08 03:29:00,
2013-10-07 23:44:00,51.5,48.0,30.07,SSW,203,0.0,0.0,89,0.00,,,0.99,weatherlink.com 1.10,2013-10-08 03:44:00,
2013-10-07 23:59:00,51.4,48.0,30.08,SSW,198,0.0,0.0,89,0.00,,,0.99,weatherlink.com 1.10,2013-10-08 03:59:00,